Voltar ao catálogo

COSMOS 1285 DEB

LostHEO
NORAD 33524·DEBRIS·🇷🇺 Russia

Lançado Aug 4, 1981 de Plesetsk Cosmodrome

Loading…

Próximas Passagens (próximas 24 horas)

TLE

ObsoletoSource: Space-Track

Época: Jan 14, 2024, 15:26 UTC

1 33524U 81071Z   24014.64325855 -.00000519  00000-0  00000+0 0  9998
2 33524  68.9974 124.3350 6228075 359.8168  15.7706  1.98320283758170

Acompanhe COSMOS 1285 DEB em tempo real com AllMySat

Download on the App Store